Flag for U.S.A. Weather past 2 weeks in Sacramento, California, U.S.A.

Now
55 °F

Clear.


Feels Like: 55 °F
Forecast: 52 / 81 °F
Wind: No wind

Location: Sacramento Executive Airport


UV Index: 5 (Moderate)

Visibility: 10 mi


Pressure: 29.79 "Hg

Humidity: 77%

Dew point: 48 °F

Location of SacramentoLocation

Historic Weather in Sacramento

°F

Sacramento temperature yesterday

Maximum temperature yesterday: 82 °F (at 5:53 PM)
Minimum temperature yesterday: 50 °F (at 6:53 AM)
Average temperature yesterday: 66 °F

Past Weeks' High & Low Weather Summary

 TemperatureHumidityPressure
High83 °F (Apr 8, 4:53 PM)100% (Apr 6, 5:53 AM)30.22 "Hg (Apr 6, 5:53 AM)
Low42 °F (Apr 5, 6:53 AM)21% (Apr 13, 3:53 PM)29.77 "Hg (Apr 16, 6:53 PM)
Average61 °F69%29.99 "Hg
* Reported Apr 2 1:53 AM — Apr 17 1:53 AM, Sacramento, Weather by CustomWeather, © 2014

Note: Actual official high and low records may vary slightly from our data, if they occured in-between our weather recording intervals... More about our weather records

Advertising

Historic Weather Conditions — Data for Previous 24 hours

 ConditionsComfort  
Time TempWeatherWind HumidityBarometerVisibility
1:53 AM
Apr 17
55 °FClear.No wind77%29.79 "Hg10 mi
12:53 AM57 °FClear.No wind72%29.80 "Hg10 mi
11:53 PM
Apr 16
60 °FClear.No wind67%29.79 "Hg10 mi
10:53 PM62 °FClear.No wind62%29.80 "Hg10 mi
9:53 PM65 °FClear.No wind63%29.80 "Hg10 mi
8:53 PM68 °FClear.No wind61%29.79 "Hg10 mi
7:53 PM72 °FSunny.5 mph55%29.78 "Hg10 mi
6:53 PM80 °FSunny.6 mph26%29.77 "Hg10 mi
5:53 PM82 °FSunny.8 mph27%29.78 "Hg10 mi
4:53 PM81 °FSunny.12 mph28%29.78 "Hg10 mi
3:53 PM81 °FSunny.9 mph24%29.80 "Hg10 mi
2:53 PM81 °FSunny.10 mph24%29.81 "Hg10 mi
1:53 PM80 °FSunny.10 mph26%29.83 "Hg10 mi
12:53 PM77 °FSunny.15 mph30%29.85 "Hg10 mi
11:53 AM74 °FSunny.13 mph36%29.87 "Hg10 mi
10:53 AM71 °FSunny.12 mph39%29.88 "Hg10 mi
9:53 AM68 °FSunny.9 mph47%29.88 "Hg10 mi
8:53 AM63 °FSunny.7 mph60%29.89 "Hg10 mi
7:53 AM56 °FSunny.No wind90%29.88 "Hg9 mi
6:53 AM50 °FFog.No wind96%29.87 "Hg6 mi
5:53 AM51 °FClear.No wind96%29.86 "Hg8 mi
4:53 AM52 °FClear.No wind93%29.85 "Hg9 mi
3:53 AM54 °FClear.No wind86%29.86 "Hg10 mi
2:53 AM55 °FClear.No wind87%29.85 "Hg10 mi
Weather by CustomWeather, © 2014

See weather overview